{"data":{"norad_id":47286,"intl_designator":"2020-100AE","name":"ONEWEB-0140","alt_names":[],"object_type":"PAYLOAD","status":"ACTIVE","operator":null,"country":"UK","launch_date":"2020-12-18","launch_site_code":"VOSTO","launch_vehicle":null,"mission":null,"orbit_class":"UNKNOWN","rcs_meters":null,"size_class":null,"mass_kg":null,"dimensions":null,"purposes":["comms"],"wikipedia_slug":null,"has_3d_model":false,"image_url":null,"decayed_at":null,"tle_current":{"epoch":"2026-09-20T04:33:24.113952Z","epoch_age_seconds":45173,"freshness":"FRESH","line1":"1 47286U 20100AE  26263.18986243  .00000356  00000+0  95381-3 0  9992","line2":"2 47286  87.8986 331.7864 0001997  91.6653 268.4704 13.12442661277156","mean_motion":13.12442661,"eccentricity":0.0001997,"inclination_deg":87.8986,"raan_deg":331.7864,"arg_perigee_deg":91.6653,"mean_anomaly_deg":268.4704,"bstar":0.00095381,"rev_number":27715,"period_min":109.71907899602,"perigee_km":1212.2085035897,"apogee_km":1215.240693112,"semimajor_km":7591.8615983509,"source":"CELESTRAK","updated_at":"2026-09-20T09:00:44.581735Z"}}}